Temp
11 11 11 11 11 10 10 10 9 9 8 8 8 8 7 7 6 6 6 6 6 5 5 5 5 5 5 5 5 5 5 5
11 11 11 10 10 10 10 10 9 9 8 8 8 8 7 7 6 6 6 6 5 5 5 5 5 5 5 5 5 5 5 4
10 10 10 10 10 10 10 10 9 9 8 8 8 8 8 7 7 6 6 5 5 5 5 5 5 4 5 5 5 5 5 4
10 10 10 10 10 10 10 10 9 9 9 8 8 8 8 7 7 7 6 6 5 5 4 4 4 4 4 4 5 5 4 4
10 10 10 10 10 10 10 10 9 9 9 9 8 8 8 8 7 7 6 6 6 5 5 4 4 4 4 4 4 4 4 4
10 10 10 10 10 10 10 10 9 9 9 8 8 8 8 7 7 7 7 6 6 5 5 4 4 4 4 4 4 4 4 4
10 9 10 10 10 10 10 9 9 9 9 8 8 8 7 7 7 7 7 7 6 6 5 5 4 4 4 4 4 3 3 3
9 9 9 9 9 9 9 9 9 8 8 8 8 8 8 7 7 7 7 7 6 6 6 5 5 5 4 4 4 4 4 3
9 9 9 9 9 9 9 9 9 8 8 8 8 8 7 7 7 7 7 7 6 6 6 6 5 5 5 4 4 4 4 4
8 9 9 9 9 9 9 9 8 8 8 8 7 7 7 7 7 7 7 7 6 6 6 6 6 5 5 5 4 4 4 4
6 8 8 8 8 8 8 8 8 8 7 7 7 7 7 7 7 7 7 7 7 6 6 6 6 6 5 5 5 4 4 4
6 7 8 8 8 8 8 8 7 7 7 7 7 7 7 7 7 7 7 7 7 6 6 6 6 6 6 5 5 5 4 4
6 6 7 8 8 8 8 7 7 7 7 7 7 7 7 7 7 7 7 7 7 6 6 6 6 6 6 6 6 6 5 5
6 6 6 7 8 8 7 7 7 7 6 6 6 7 7 7 7 7 7 6 6 6 6 6 6 6 6 6 6 6 6 6
5 6 6 7 7 7 7 6 6 6 7 6 7 7 7 7 7 7 7 6 6 6 6 6 6 5 5 5 6 6 6 6
3 6 6 6 7 7 6 7 7 7 6 6 7 7 7 7 7 6 6 6 6 6 5 5 5 5 5 5 5 5 5 5
2 4 5 6 6 6 6 5 6 6 6 7 7 7 6 6 6 6 6 6 6 6 5 5 5 5 5 5 5 5 5 5
2 3 5 5 6 7 5 2 6 6 7 7 7 7 7 7 6 6 6 6 5 5 4 4 4 4 4 4 4 4 5 5
2 2 4 5 6 6 6 5 6 6 6 7 7 7 7 7 6 6 6 6 5 4 3 3 4 4 3 4 4 4 4 4
1 1 3 4 5 6 6 5 5 6 6 6 6 6 6 6 6 6 5 5 4 4 4 4 4 3 4 4 4 4 4 4
Height
3145 3146 3146 3148 3148 3148 3149 3150 3150 3151 3152 3154 3154 3155 3155 3155 3156 3157 3158 3159 3160 3160 3161 3161 3162 3162 3162 3163 3164 3164 3163 3163
3142 3143 3144 3145 3145 3146 3147 3148 3149 3150 3151 3152 3153 3153 3153 3154 3154 3155 3156 3157 3158 3159 3159 3160 3160 3160 3161 3162 3162 3162 3161 3161
3137 3139 3141 3142 3143 3143 3145 3146 3147 3147 3148 3149 3150 3151 3152 3152 3153 3154 3155 3155 3157 3157 3157 3158 3159 3159 3160 3159 3160 3160 3160 3160
3133 3136 3137 3138 3139 3141 3142 3143 3144 3145 3146 3147 3148 3149 3149 3150 3151 3152 3153 3153 3154 3155 3155 3156 3157 3157 3158 3158 3158 3158 3158 3158
3127 3130 3132 3134 3136 3137 3139 3140 3142 3142 3143 3144 3145 3147 3147 3148 3149 3149 3150 3151 3152 3152 3153 3154 3155 3155 3156 3156 3156 3156 3156 3156
3121 3124 3127 3129 3131 3133 3135 3137 3139 3141 3141 3142 3143 3144 3145 3146 3146 3147 3148 3149 3149 3150 3150 3151 3151 3152 3153 3153 3153 3154 3154 3154
3113 3117 3120 3123 3126 3128 3130 3133 3135 3137 3139 3139 3140 3142 3143 3144 3144 3144 3145 3146 3147 3147 3148 3148 3148 3149 3150 3150 3150 3151 3151 3151
3105 3108 3112 3116 3120 3122 3125 3128 3130 3132 3135 3136 3138 3139 3139 3140 3141 3141 3142 3143 3144 3145 3145 3145 3145 3145 3145 3146 3147 3147 3147 3147
3096 3099 3104 3108 3113 3116 3119 3121 3124 3128 3130 3132 3134 3136 3137 3138 3138 3138 3139 3140 3141 3141 3141 3142 3142 3142 3142 3143 3143 3143 3143 3144
3086 3090 3094 3099 3104 3109 3112 3114 3117 3121 3125 3128 3130 3132 3133 3135 3135 3135 3136 3137 3137 3138 3138 3139 3139 3139 3139 3140 3139 3139 3140 3139
3077 3080 3084 3091 3096 3100 3104 3107 3110 3115 3118 3121 3124 3126 3128 3131 3132 3132 3133 3134 3135 3135 3135 3135 3136 3136 3136 3136 3136 3136 3136 3135
3065 3069 3074 3082 3087 3091 3095 3098 3104 3107 3111 3114 3117 3120 3123 3125 3127 3128 3129 3130 3131 3132 3132 3132 3132 3133 3132 3132 3131 3131 3131 3131
3053 3058 3062 3069 3073 3078 3085 3090 3097 3099 3104 3107 3110 3113 3117 3119 3122 3123 3125 3126 3127 3128 3128 3128 3128 3129 3129 3128 3128 3127 3126 3126
3039 3046 3051 3057 3063 3070 3078 3084 3088 3092 3096 3100 3105 3108 3110 3113 3115 3117 3119 3120 3121 3122 3123 3124 3124 3124 3125 3125 3124 3124 3122 3120
3024 3031 3040 3045 3054 3063 3068 3072 3077 3081 3087 3093 3097 3101 3104 3107 3109 3110 3112 3113 3115 3117 3118 3119 3120 3120 3120 3121 3119 3119 3117 3116
3011 3019 3028 3036 3044 3050 3053 3061 3069 3078 3083 3085 3089 3094 3098 3100 3102 3103 3105 3107 3108 3110 3111 3112 3113 3114 3114 3115 3115 3115 3113 3111
3001 3007 3014 3024 3031 3036 3040 3046 3058 3068 3075 3076 3081 3086 3089 3092 3094 3096 3098 3100 3101 3103 3104 3104 3105 3106 3107 3108 3109 3109 3108 3107
2995 2999 3007 3014 3021 3030 3032 3021 3052 3060 3069 3069 3072 3078 3080 3083 3086 3088 3090 3092 3094 3095 3095 3095 3096 3097 3099 3100 3101 3101 3102 3101
2991 2996 3001 3007 3016 3025 3034 3045 3051 3056 3059 3058 3063 3069 3072 3075 3077 3078 3082 3085 3087 3086 3084 3088 3091 3092 3091 3092 3092 3092 3093 3093
2989 2994 3000 3005 3012 3021 3028 3036 3041 3044 3045 3049 3056 3061 3064 3067 3068 3070 3072 3075 3077 3078 3079 3081 3082 3084 3085 3084 3084 3084 3084 3084
Wind_Speed
15 15 13 14 12 11 10 9 9 8 8 7 6 5 6 6 5 6 6 6 7 6 6 5 5 6 7 8 9 8 10 10
19 18 16 15 13 13 12 11 11 10 9 8 8 7 7 7 7 6 7 7 7 7 7 7 6 7 10 11 11 10 10 11
24 22 20 17 15 15 15 14 13 12 12 10 9 7 7 7 7 7 8 8 8 9 8 8 8 9 10 9 9 10 9 10
29 27 23 20 19 17 16 15 14 12 11 11 9 8 7 8 8 8 9 9 10 10 10 10 11 11 11 10 10 10 10 10
36 32 28 20 19 19 17 16 14 14 13 12 11 10 8 8 8 8 8 9 10 10 10 11 12 13 14 14 12 12 12 12
39 36 33 27 23 22 19 16 15 15 14 14 12 10 8 8 7 8 9 9 10 11 11 13 14 15 15 16 16 15 15 14
45 42 37 33 28 26 23 20 18 17 16 15 14 12 10 9 8 9 9 10 10 11 12 13 15 17 17 18 19 20 18 17
50 47 43 38 34 30 27 25 23 21 19 17 15 13 11 10 9 9 10 10 11 12 13 14 15 18 19 20 20 21 21 19
52 51 47 43 38 35 30 28 28 25 21 19 17 15 13 12 11 11 11 12 12 12 14 15 16 17 18 20 21 21 22 20
46 55 53 47 42 39 34 32 30 28 25 22 20 19 17 17 15 13 13 14 14 13 13 15 16 17 18 19 20 21 22 22
44 53 57 52 46 42 38 34 32 30 29 27 25 23 22 21 20 18 17 17 16 15 13 14 15 16 17 19 20 22 22 24
49 50 59 55 50 46 42 38 33 31 32 32 31 29 27 26 25 23 22 21 19 18 16 15 15 16 17 19 20 21 22 22
54 51 56 59 56 51 46 40 33 35 35 34 34 33 30 29 28 27 25 24 23 22 21 20 17 17 18 18 19 19 21 24
57 54 50 56 60 53 44 38 39 36 36 33 30 30 30 29 27 25 26 27 27 27 25 23 21 20 19 19 19 18 18 19
53 58 53 53 58 55 48 43 42 41 36 33 32 33 34 31 30 29 28 28 28 30 29 27 26 23 22 22 21 19 20 17
47 58 54 48 54 60 56 50 44 39 37 37 37 36 35 34 34 34 34 32 31 30 31 31 30 29 28 25 24 22 23 24
36 51 55 50 52 57 60 54 42 44 42 38 36 37 40 39 40 40 39 38 36 33 31 32 33 34 32 31 29 28 26 25
31 37 46 50 52 45 57 38 44 41 41 37 39 40 41 42 44 45 43 41 39 39 34 32 34 35 36 36 35 34 30 30
25 32 37 39 46 38 34 42 41 41 38 36 37 40 37 40 43 44 46 47 43 48 41 40 43 39 36 37 37 38 36 34
24 28 22 30 37 36 33 31 32 35 31 31 36 33 35 40 38 38 39 42 43 43 35 36 34 41 41 40 40 39 39 37
Wind_Direction
215 219 219 221 215 213 211 213 209 210 214 221 227 232 243 243 244 245 239 233 233 224 226 216 235 244 252 262 266 269 272 257
216 215 218 215 213 213 209 208 209 208 209 214 221 224 233 241 238 238 233 240 240 236 232 235 237 239 262 268 267 267 262 258
216 215 217 213 215 212 211 207 207 207 207 209 215 219 231 241 244 239 233 235 246 243 242 241 247 254 265 266 267 271 256 266
219 220 217 214 216 216 214 213 211 209 209 209 211 216 224 237 242 244 232 239 241 247 244 245 251 257 260 264 267 269 263 250
219 221 220 216 221 218 217 218 218 209 209 209 207 215 221 237 246 247 246 243 248 250 253 252 253 255 260 264 269 271 268 260
219 222 223 217 219 215 215 220 223 222 213 211 208 213 219 232 244 247 248 251 249 250 247 250 252 251 257 261 267 269 270 269
220 223 222 219 218 217 213 215 217 224 222 215 211 214 217 230 240 247 251 253 254 254 251 249 253 252 256 256 261 265 267 272
223 221 222 223 221 220 217 218 222 219 221 221 219 217 222 230 239 247 249 254 255 257 255 250 250 253 255 258 259 266 265 269
226 223 221 223 222 222 219 220 225 225 221 220 224 227 230 236 240 250 250 250 255 259 262 259 256 259 259 262 265 269 269 271
227 225 223 220 222 223 221 222 225 227 227 226 228 232 238 243 246 247 253 254 254 258 264 267 266 260 264 264 266 266 267 268
229 227 224 222 221 222 223 225 225 227 229 231 234 234 238 244 247 249 252 255 259 258 259 268 268 267 261 263 264 268 270 267
226 227 223 222 223 222 222 225 226 228 231 232 233 235 237 243 246 248 252 257 259 260 259 259 265 266 264 265 265 267 267 266
225 226 225 221 221 220 219 224 227 226 229 231 231 234 234 237 243 247 250 256 259 258 255 254 259 264 267 275 278 279 279 278
225 224 227 223 221 218 216 221 227 225 226 229 231 231 231 233 236 242 248 252 254 255 256 256 256 258 268 272 281 286 291 288
223 220 223 224 222 219 214 215 219 220 221 226 227 229 233 234 237 240 244 250 255 253 254 256 257 259 263 266 272 286 288 290
221 219 219 222 219 221 217 218 219 220 231 230 229 233 236 239 242 244 247 247 251 253 252 254 256 258 259 264 269 274 282 290
231 218 215 217 215 218 221 213 216 225 234 226 229 236 239 243 244 249 251 252 249 249 249 249 252 256 260 264 265 269 274 280
236 224 215 217 212 223 216 205 231 228 228 231 237 241 243 248 247 247 248 251 252 248 243 248 246 250 260 261 264 266 271 275
228 222 205 205 214 215 215 215 221 229 235 238 241 243 248 253 252 252 251 253 252 254 257 258 248 251 259 261 261 263 266 269
206 199 193 193 204 213 213 211 219 222 227 236 238 245 251 249 249 252 252 251 248 253 255 256 262 247 250 264 266 262 261 265